Hourly Weather Roundup
Issued by NWS Central Illinois

Home | Current Version | Previous Version | Text Only | Print | Product List | Glossary On
Versions: 1 2 3 4 5 6 7 8 9 10 11 12 13 14 15 16 17 18 19 20 21 22 23 24 25 26 27 28 29 30 31 32 33 34 35 36 37 38 39 40 41 42 43 44 45 46 47 48 49 50
338
NZUS43 KILX 201810
HWRILX

Area Weather Roundup
National Weather Service Lincoln IL
1200 PM CST TUE FEB 20 2018

NOTE:  "FAIR" indicates few or no clouds below 12,000 feet, with
       no sigificant weather and/or obstructions to visibility.


CITY           SKY/WX    TMP DP  RH WIND       PRES   REMARKS
Bloomington    LGT RAIN  62  61  96 S35       29.86F
6HR MIN TEMP:  60; 6HR MAX TEMP:  64; 6HR PCP:  0.26;

Champaign      LGT RAIN  64  62  93 S30       29.94F
6HR MIN TEMP:  61; 6HR MAX TEMP:  64; 6HR PCP:  0.49;

Danville       LGT RAIN  64  62  93 S22G30    29.94F
6HR MIN TEMP:  62; 6HR MAX TEMP:  64; 6HR PCP:  1.11;

Decatur        LGT RAIN  65  64  97 S23G36    29.92F
6HR MIN TEMP:  63; 6HR MAX TEMP:  65; 6HR PCP:  0.15;

Effingham      LGT RAIN  69  64  84 S16G22    30.02F
6HR MIN TEMP:  65; 6HR MAX TEMP:  69; 6HR PCP:  0.14;

Flora          PTSUNNY   73  61  67 S30       30.03F
6HR MIN TEMP:  67; 6HR MAX TEMP:  73;

Galesburg      RAIN      36  36 100 NW6       29.92F WCI  31
6HR MIN TEMP:  35; 6HR MAX TEMP:  47; 6HR PCP:  0.26;

Jacksonville   CLOUDY    66  61  85 S21G31    29.85F
6HR MIN TEMP:  61; 6HR MAX TEMP:  67; 6HR PCP:  0.02;

Lacon          RAIN      62  57  83 NW26G40   29.88R
6HR MIN TEMP:  58; 6HR MAX TEMP:  67;

Lawrenceville  PTSUNNY   75  59  57 SW29G38   30.05F
6HR MIN TEMP:  66; 6HR MAX TEMP:  75; 6HR PCP: TRACE;

Litchfield     LGT RAIN  64  62  94 S26G36    29.93F
6HR MIN TEMP:  61; 6HR MAX TEMP:  64; 6HR PCP:  0.08;

$$


CITY           SKY/WX    TMP DP  RH WIND       PRES   REMARKS
Lincoln        HVY RAIN  65  64  97 S24G33    29.86F
6HR MIN TEMP:  62; 6HR MAX TEMP:  66; 6HR PCP:  0.24;

Macomb         MIX PCPN  35  35 100 NW5       29.95S VSB 1/2 WCI  31
6HR MIN TEMP:  35; 6HR MAX TEMP:  53; 6HR PCP:  0.53;

Mattoon        LGT RAIN  65  62  90 S18G26    29.98F
6HR MIN TEMP:  63; 6HR MAX TEMP:  65;

Mt Carmel AP   CLOUDY    75  59  58 SW24G31   30.04F
6HR MIN TEMP:  65; 6HR MAX TEMP:  75;

Olney-Noble AP PTSUNNY   73  59  62 S16G33    30.03F
Paris AP       DRIZZLE   66  62  85 S22G32    30.01F
6HR MIN TEMP:  63; 6HR MAX TEMP:  67; 6HR PCP:  0.07;

Peoria         LGT RAIN  42  39  89 NW15G38   29.90R FOG     WCI  34
6HR MIN TEMP:  44; 6HR MAX TEMP:  67; 6HR PCP: TRACE;

Pontiac        CLOUDY    66  64  93 S31G40    29.86F
6HR MIN TEMP:  61; 6HR MAX TEMP:  67; 6HR PCP:  0.01;

Rantoul        LGT RAIN  65  64  96 S20G29    29.94S
6HR MIN TEMP:  63; 6HR MAX TEMP:  65; 6HR PCP:  0.04;

Robinson       PTSUNNY   73  59  61 SW29G38   30.04F
6HR MIN TEMP:  63; 6HR MAX TEMP:  74;

Springfield    LGT RAIN  67  62  84 S25G33    29.87F
6HR MIN TEMP:  63; 6HR MAX TEMP:  67; 6HR PCP:  0.11;

Taylorville    CLOUDY    64  63  95 S24G32    29.92S
6HR MIN TEMP:  62; 6HR MAX TEMP:  64; 6HR PCP:  0.08;

$$

...REGIONAL REPORTS...


CITY           SKY/WX    TMP DP  RH WIND       PRES   REMARKS
Chicago O`Hare CLOUDY    65  58  78 S23G32    29.82F
Kankakee       LGT RAIN  62  62  98 SW21G31   29.90F
Moline         LGT RAIN  36  35  96 W12       29.93F FOG     WCI  28
Mount Sterling RAIN      37  36  96 NW8       29.93R WCI  30
Mount Vernon   CLOUDY    73  62  68 S29G37    30.01F
Pittsfield     RAIN      41  39  95 NW17      29.93R WCI  32
Quincy         RAIN      36  35  96 N6        29.91F FOG     WCI  31
Rockford       RAIN      41  40  96 CALM      29.89R FOG
$$


CITY           SKY/WX    TMP DP  RH WIND       PRES   REMARKS
Burlington     RAIN      34  32  92 N8        29.89F FOG     WCI  27
Cedar Rapids   LGT RAIN  32  30  92 NW18      29.91F WCI  20
Des Moines     CLOUDY    24  19  81 NW17      30.01R WCI  11
Kirksville     FRZ RAIN  33  33 100 NW9       29.96R FOG     WCI  25
Ottumwa        CLOUDY    30  27  88 NW16      29.96R WCI  19
St Louis       LGT RAIN  66  62  87 S20G32    29.91F FOG
$$


CITY           SKY/WX    TMP DP  RH WIND       PRES   REMARKS
Terre Haute    LGT RAIN  72  59  63 SW24G37   30.02F
Evansville     FAIR      75  57  53 SW22G36   30.08F
Indianapolis   PTSUNNY   73  56  54 SW32G40   30.04S
Lafayette      LGT RAIN  63  60  90 S15G25    29.98F
Madison        RAIN      38  37  97 VRB3      29.85R FOG
Milwaukee      CLOUDY    44  43  96 SE5       29.80F FOG
$$






USA.gov is the U.S. government's official web portal to all federal, state and local government web resources and services.